Regional Weather Roundup
Issued by NWS Upton, NY

Current Version | Previous Version | Graphics & Text | Print | Product List | Glossary Off
Versions: 1 2 3 4 5 6 7 8 9 10 11 12 13 14 15 16 17 18 19 20 21 22 23 24 25 26 27

000
ASUS41 KOKX 192009
RWROKX

REGIONAL WEATHER ROUNDUP
NATIONAL WEATHER SERVICE NEW YORK NY
400 PM EDT WED JUL 19 2017

NOTE: "FAIR" INDICATES FEW OR NO CLOUDS BELOW 12,000 FEET WITH NO
SIGNIFICANT WEATHER AND/OR OBSTRUCTIONS TO VISIBILITY.

NYZ071-072-176-178-NJZ106-104-192100-
NEW YORK CITY METRO AREA

CITY           SKY/WX    TMP DP  RH WIND       PRES   REMARKS
Central Park   MOSUNNY   90  64  42 VRB3      30.00F HX  91
Bronx Bot Gard   N/A     91  63  38 NW6       29.98F HX  92
LaGuardia APRT PTSUNNY   93  65  39 NW9       29.96F HX  95
Kennedy INTL   MOSUNNY   86  76  71 S17       29.98F HX  96
Breezy Point     N/A     79 N/A N/A S14         N/A
Newark/Liberty MOSUNNY   92  63  38 SW12G21   29.97F HX  93
Teterboro      PTSUNNY   90  65  43 NW10G17   29.96F HX  92
$$

NYZ177-179-078>081-192100-
LONG ISLAND NEW YORK

CITY           SKY/WX    TMP DP  RH WIND       PRES   REMARKS
Jones Beach      N/A     79 N/A N/A S12G18      N/A
Matinecock PT    N/A     84 N/A N/A SW6         N/A
Farmingdale    SUNNY     87  71  58 SW16      29.98F HX  93
MacArthur/ISP  MOSUNNY   87  72  60 S16G22    29.97F HX  93
Shirley        SUNNY     85  76  74 S12       29.98F HX  94
Mt Sinai Harb    N/A     91 N/A N/A W7G13       N/A
Westhampton    SUNNY     83  73  72 SW13G22   30.00F
East Hampton   FAIR      82  74  77 SW13G18   29.98F
Montauk          N/A     81  74  79 SW8       29.99F
$$

NYZ052-065-067-192100-
HUDSON VALLEY

CITY           SKY/WX    TMP DP  RH WIND       PRES   REMARKS
White Plains   MOSUNNY   90  61  37 W12G18    29.98F
Larchmont Harb   N/A     88 N/A N/A SW14        N/A
Croton O-T Hud   N/A     88 N/A N/A W9          N/A
Newburgh       MOSUNNY   90  61  37 W12G17    30.00F
Montgomery     SUNNY     91  57  31 W8G16     29.97F
Poughkeepsie   SUNNY     90  58  33 W8        29.95F
Albany         MOSUNNY   85  63  47 NW5G16    29.98F
$$

NJZ001-105-106-008-010-013-015-019>022-104-192100-
NEW JERSEY

CITY           SKY/WX    TMP DP  RH WIND       PRES   REMARKS
Newark/Liberty MOSUNNY   92  63  38 SW12G21   29.97F HX  93
Teterboro      PTSUNNY   90  65  43 NW10G17   29.96F HX  92
Caldwell       SUNNY     91  64  40 W7        29.98F HX  92
Somerville     SUNNY     91  68  46 VRB5      29.97F HX  95
Linden         FAIR      92  62  35 W10G17    29.97F HX  93
Perth Amboy      N/A     90 N/A N/A SW13G18     N/A
Sussex         SUNNY     89  66  46 VRB6      30.00F HX  91
Andover          N/A     91  66  43 NW5       30.01F HX  93
Trenton        SUNNY     92  66  42 NW7       29.99F HX  94
Millville      SUNNY     89  76  65 SW7       30.01F HX 100
Atlantic City  MOSUNNY   83  71  67 S12       30.01F
Wrightstown    MOSUNNY   93  67  41 NW9       29.96F HX  96
Toms River     MOSUNNY   91  72  53 S15       29.99F HX  98
Belmar         SUNNY     93  68  43 SW8       30.00F HX  97
$$

PAZ047>061-062-071-192100-
EASTERN PENNSYLVANIA

CITY           SKY/WX    TMP DP  RH WIND       PRES   REMARKS
Philadelphia   MOSUNNY   93  66  40 SW14      29.99F HX  96
Allentown      SUNNY     92  67  43 W10       30.00F HX  95
Scranton       MOSUNNY   89  68  49 MISG      30.02F HX  93
$$

CTZ002-004>006-009-010-012-RIZ004-006-007-MAZ004-011-015-192100-
SOUTHERN NEW ENGLAND
 IN CT

CITY           SKY/WX    TMP DP  RH WIND       PRES   REMARKS
Bradley INTL   MOSUNNY   92  61  35 W10G18    29.95F HX  92
Hartford       MOSUNNY   92  61  35 NW9       29.94S HX  92
Danbury        SUNNY     88  62  41 W8        30.00F
Wtrbury/Oxford MOSUNNY   88  59  37 W8        30.02
Bridgeport     SUNNY     93  57  29 W13G21    29.95F HX  91
Meriden        SUNNY     90  60  36 VRB7      29.95F
New Haven      MOSUNNY   87  72  60 S8        29.96F HX  93
Chester        FAIR      88  70  55 SW8G14    29.98F HX  92
Groton         MOSUNNY   83  74  74 SW10      29.96F
Wilimantic     PTSUNNY   89  71  55 SW8       29.95F HX  95

 IN RI

CITY           SKY/WX    TMP DP  RH WIND       PRES   REMARKS
Providence     MOSUNNY   89  74  60 S17       29.94F HX  98
Block Island   SUNNY     80  74  81 SW16      29.99F
Westerly       SUNNY     85  74  69 S13G20    29.98F HX  92
 IN MA

CITY           SKY/WX    TMP DP  RH WIND       PRES   REMARKS
Boston         MOSUNNY   90  65  43 SW14G24   29.91F HX  92
Worcester      MOSUNNY   85  64  49 W14       29.99F
Westfield      SUNNY     91  62  37 NW8       29.95F HX  91
Provincetown   SUNNY     82  74  76 SW17G25   29.95F
Nantucket      SUNNY     77  73  87 S12       29.99F
$$

ANZ330-335-338-340-345-350-353-355-192100-
COASTAL MARINE OBSERVATIONS


STATION/POSITION TIME  SKY/WX   TEMP    WIND        PRES    VSBY  WAVE
                                AIR SEA DIR/SP/G                  HT/PER
                 (UTC)          (F)     (DEG/KT/KT) (MB)    (MI)  (FT/S)
NY HARB ENTRANCE 1850            77 76  190/ 12/ 14 1015.6          2/12
20 S FIRE ISLAND 1950            78 76  200/ 14/ 16 1015.3          3/16
GREAT SOUTH BAY  1930            78 82  220/ 16/ 19   N/A
23 SSW MONTAUK P 1850            77 76              1016.2          3/ 8
15 E BARNEGAT LI 1930               79                N/A           3/17
HUDSON CANYON    1850            78 80  210/ 12/ 14 1016.6          3/ 6
KINGS POINT      1942            86 74  340/  6/  7 1014.8
EXECUTION ROCKS  1945            88     270/ 10/ 16   N/A
CENTRAL LI SOUND 1930            82     210/  4/  4   N/A           0
EASTERN LI SOUND NOT AVBL
ROBBINS REEF     1936                   280/ 10/ 17 1015.6
$$


>>>>>>>>>>>>>>>>>>>>>>>>>>>> KEY <<<<<<<<<<<<<<<<<<<<<<<<<<<
>                                                          <
>     SKY/WX - Sky Condition/Present Weather               <
>     TMP    - Temperature in Fahrenheit                   <
>     DP     - Dew Point in Fahrenheit                     <
>     RH     - Relative Humidity in Percent                <
>     WIND   - Direction (from) and Speed in MPH           <
>     PRES   - Mean Sea Level Pressure (inches of Hg)      <
>     WCI    - Wind Chill Index                            <
>     VSB    - VISIBILITY IN MILES                         <
>     HX     - HEAT INDEX                                  <
>     TC     - TEMPERATURE IN CELSIUS                      <
>     VRB    - VARIABLE WIND DIRECTION                     <
>                                                          <
>>>>>>>>>>>>>>>>>>>>>>>>>>>> KEY <<<<<<<<<<<<<<<<<<<<<<<<<<<




USA.gov is the U.S. government's official web portal to all federal, state and local government web resources and services.